STARLINK-1467

decayed
NORAD ID: 45733 Int'l Des: 2020-038 Owner: SPXS Country: US Constellation: starlink
LEOCIRCULAR
Group

About STARLINK-1467

Description loading...

Altitude History

Altitude vs Time

uPlot chart will show altitude changes over time

Two-Line Element Set

1 45733U 20038D 24328.74756175 .21316887 12646-4 41283-3 0 9996
2 45733 53.0416 57.2505 0005261 359.0237 143.8585 16.47005152248212
Epoch: Nov 23, 2024 • Age: 7094 hours

Current Status

Position data unavailable
Launch Date Jun 13, 2020
Age 5.2 years
Decay Date Nov 23, 2024
Type internet

Technical Details

Classification Payload
Mass 260.00 kg
Dry Mass 248.00 kg
Total Mass 260.00 kg
Length 0.20 m
Diameter 2.80 m
Span 9.00 m
Shape Box + pan
Manufacturer SPXS
Bus Type Starlink
Phase Status Unknown Transfer Status
Owner/State SPXS/US

Large Constellations

Loading constellations...